TIME,DELAY(SENSOR),PRES,T(CTD),SAL,OXYGEN,RAWTEMP,T(OPTODE),TCPHASE,TURBIDITY,TURBIDITY_GAIN,FLUOR,BETA,CDOM,ED411.5,ED443.8,ED489.6,PAR,COMP,TILT,TILTY(TILT),CHECK
1341230769,6468,194.7100067138672000,5.3155999183654785,35.0004997253418000,361.4071960449219000,642.4431762695312000,5.2953929901123050,32.2615203857421900,19,3,48,117,62,2147634216,2147392914,2147303094,2148320959,480,0,-4,63082
1341230830,6468,191.3899993896484400,5.3159999847412110,34.9998016357421900,360.9476013183594000,642.4313964843750000,5.2957758903503420,32.2758789062500000,20,3,50,121,62,2147638560,2147394870,2147306810,2148323848,55,0,-4,40390
1341230891,6467,188.0000000000000000,5.3157000541687010,35.0000991821289060,361.0018005371094000,642.4193115234375000,5.2961688041687010,32.2740898132324200,20,3,50,119,62,2147635478,2147395158,2147311670,2148322719,3324,0,-4,3280
1341230952,6468,184.6300048828125000,5.3214998245239260,34.9995994567871100,360.9754943847656000,642.2517700195312000,5.3015999794006350,32.2719306945800800,27,3,50,147,62,2147638226,2147395117,2147313901,2148322532,3015,0,-4,59857
1341231013,6469,181.2899932861328000,5.3256001472473145,35.0000000000000000,361.0534973144531000,642.1226806640625000,5.3057842254638670,32.2672882080078100,28,3,49,115,62,2147638134,2147396118,2147314747,2148321970,2825,0,-4,63897
1341231074,6469,177.9299926757812500,5.3309998512268070,35.0001983642578100,361.0436096191406000,641.9605712890625000,5.3110389709472660,32.2647094726562500,21,3,50,128,62,2147635675,2147397174,2147318970,2148325164,2646,0,-4,9381
1341231135,6468,174.5899963378906200,5.3354001045227050,35.0001983642578100,360.9616088867187500,641.8292236328125000,5.3152980804443360,32.2649192810058600,22,3,49,123,62,2147634614,2147394120,2147324511,2148326847,2433,0,-4,61720
1341231196,6469,171.2200012207031200,5.3366999626159670,35.0009994506835940,360.9684143066406000,641.7706909179688000,5.3171958923339840,32.2638206481933600,20,3,49,122,62,2147634330,2147397119,2147330769,2148325887,2261,0,-4,16026
1341231257,6468,167.8999938964843800,5.3373999595642090,35.0009002685546900,360.9054870605469000,641.7446289062500000,5.3180432319641110,32.2653617858886700,21,3,50,131,62,2147637603,2147401101,2147334838,2148326998,2127,0,-4,20807
1341231318,6469,164.6199951171875000,5.3403000831604000,35.0012016296386700,360.9619140625000000,641.6403198242188000,5.3214211463928220,32.2616310119628900,21,3,50,123,62,2147634706,2147397631,2147341567,2148326413,1926,0,-4,3904
1341231382,6468,161.2100067138672000,5.3484997749328610,35.0013008117675800,360.8526000976562500,641.4094848632812000,5.3289031982421875,32.2608985900878900,24,3,50,127,62,2147636040,2147401046,2147346916,2148327606,1722,0,-4,9603
1341231443,6468,158.0700073242187500,5.3552999496459960,35.0014991760253900,360.7793884277344000,641.2025756835938000,5.3356089591979980,32.2597007751464840,146,3,50,127,62,2147639076,2147403121,2147353489,2148330034,1510,0,-4,14549
1341231510,6468,154.6699981689453000,5.3612999916076660,35.0021018981933600,360.5620117187500000,641.0073852539062000,5.3419318199157715,32.2629814147949200,19,3,51,136,62,2147637389,2147404698,2147366226,2148329590,1263,0,-4,61938
1341231571,6468,151.5800018310547000,5.3659000396728520,35.0022010803222660,360.4826049804687500,640.8483276367188000,5.3470897674560550,32.2627105712890600,54,3,50,134,63,2147635414,2147404068,2147378468,2148331615,1017,0,-4,35599
1341231634,6468,148.3800048828125000,5.3715000152587890,35.0021018981933600,360.4020996093750000,640.7329711914062000,5.3508257865905760,32.2634887695312500,18,3,50,129,62,2147635990,2147404118,2147384836,2148334074,671,0,-4,9206
1341231695,6468,145.3200073242187500,5.3765997886657715,35.0027008056640600,360.3024902343750000,640.5313720703125000,5.3573570251464840,32.2631111145019500,22,3,50,117,62,2147634820,2147404013,2147392502,2148330957,258,0,-4,22761
1341231758,6467,142.2400054931640600,5.3825001716613770,35.0024986267089840,360.1098022460937500,640.3732299804688000,5.3624839782714840,32.2664909362793000,28,3,50,126,62,2147639442,2147408566,2147410993,2148335346,3437,0,-4,49598
1341231819,6467,139.2799987792968800,5.3945999145507810,35.0023994445800800,359.8333129882812500,640.0333862304688000,5.3734931945800780,32.2690887451171900,22,3,50,116,62,2147636173,2147410298,2147424694,2148337526,3002,0,-4,10256
1341231882,6466,136.2799987792968800,5.4053997993469240,35.0033988952636700,359.5357971191406000,639.6661987304688000,5.3853869438171390,32.2724494934082000,23,3,50,128,62,2147636882,2147411926,2147442047,2148341142,2774,0,-4,64624
1341231943,6467,133.4100036621093800,5.4154000282287600,35.0033988952636700,359.2286987304687500,639.3297729492188000,5.3962821960449220,32.2761993408203100,67,3,50,124,62,2147635108,2147419039,2147448000,2148338587,2654,0,-4,9690
1341232006,6469,130.5299987792968800,5.4217000007629395,35.0040016174316400,358.9725036621094000,639.1395263671875000,5.4024472236633300,32.2811088562011700,20,3,51,122,62,2147637064,2147414143,2147458728,2148342857,2444,0,-4,55193
1341232067,6466,127.7200012207031200,5.4293999671936035,35.0037994384765600,358.7112121582031000,638.8859863281250000,5.4106578826904300,32.2851486206054700,24,3,51,116,62,2147636306,2147418546,2147464169,2148344086,2386,0,-4,34397
1341232130,6468,124.8700027465820300,5.4447999000549320,35.0040016174316400,358.4957885742187500,638.4738769531250000,5.4240021705627440,32.2845802307128900,21,3,50,118,62,2147639177,2147419094,2147479185,2148344086,2269,0,-4,18890
1341232191,6466,122.1100006103515600,5.4558000564575195,35.0051994323730500,358.1747131347656000,638.1074218750000000,5.4358668327331540,32.2883987426757800,18,3,50,132,62,2147637069,2147424520,2147497229,2148345490,2176,0,-4,24877
1341232254,6467,119.1999969482421900,5.4583001136779785,35.0051002502441400,358.0848999023437500,637.9965209960938000,5.4394569396972660,32.2896614074707000,19,3,50,148,62,2147639537,2147427039,2147513558,2148351336,2060,0,-4,26020
1341232315,6467,116.3300018310546900,5.4791002273559570,35.0051994323730500,357.7963867187500000,637.4080200195312000,5.4585080146789550,32.2883415222168000,20,3,52,124,62,2147639976,2147429558,2147539706,2148352424,1917,0,-4,53635
1341232378,6467,113.2799987792968800,5.4928002357482910,35.0060005187988300,357.4942932128906000,636.9492187500000000,5.4733557701110840,32.2898292541503900,23,3,53,133,62,2147639231,2147438930,2147574948,2148358628,1706,0,-4,58600
1341232439,6467,110.3099975585937500,5.5131998062133790,35.0057983398437500,357.3500976562500000,636.3688964843750000,5.4921360015869140,32.2844200134277340,21,3,52,155,62,2147641823,2147444739,2147617192,2148366883,1449,0,-4,30318
1341232502,6467,107.1699981689453100,5.5444998741149900,35.0056991577148440,357.1312866210937500,635.4005126953125000,5.5234642028808590,32.2744712829589840,21,3,52,126,62,2147641123,2147449096,2147635194,2148370472,1248,0,-4,27313
1341232563,6468,104.1200027465820300,5.5731000900268555,35.0066986083984400,357.2815856933594000,634.5839843750000000,5.5498747825622560,32.2550010681152340,22,3,53,126,62,2147643401,2147458185,2147661503,2148374170,915,0,-4,27801
1341232626,6468,100.9899978637695300,5.6090998649597170,35.0055007934570300,357.6354980468750000,633.5114135742188000,5.5845551490783690,32.2249908447265600,29,3,57,142,61,2147646486,2147478084,2147762431,2148388429,592,0,-4,21324
1341232687,6468,98.0500030517578100,5.6238999366760250,35.0054016113281250,358.0891113281250000,632.9644165039062000,5.6022381782531740,32.2006111145019500,23,3,54,132,62,2147649124,2147506056,2147891756,2148409302,587,0,-4,24610
1341232750,6467,95.0800018310546900,5.6592998504638670,35.0041007995605500,358.6724853515625000,631.9439086914062000,5.6352138519287110,32.1639289855957000,19,3,56,147,62,2147650157,2147520483,2147956442,2148425434,3221,0,-4,6411
1341232811,6468,92.3000030517578100,5.6827998161315920,35.0035018920898440,359.9047851562500000,631.1912231445312000,5.6595330238342285,32.1114082336425800,25,3,56,209,62,2147659304,2147562267,2148153334,2148455368,3007,0,-4,34626
1341232874,6469,89.5400009155273400,5.6975998878479000,35.0027008056640600,360.7804870605469000,630.6586914062500000,5.6767311096191410,32.0737991333007800,20,3,56,140,62,2147662376,2147590779,2148236159,2148470284,2813,0,-4,37945
1341232935,6468,86.9400024414062500,5.7109999656677250,35.0026016235351560,361.3981933593750000,630.2277221679688000,5.6906528472900390,32.0469589233398440,21,3,58,144,62,2147660580,2147581869,2148178760,2148465019,2820,0,-4,38515
1341232998,6467,84.3899993896484400,5.7210001945495605,35.0027008056640600,362.0209045410156000,629.9362182617188000,5.7000641822814940,32.0217208862304700,21,3,58,165,61,2147666870,2147609211,2148258271,2148480365,2686,0,-4,24768
1341233059,6468,82.0400009155273400,5.7374000549316410,35.0038986206054700,362.1961975097656000,629.2570800781250000,5.7219891548156740,32.0046386718750000,22,3,58,168,62,2147670472,2147640196,2148396955,2148504653,2473,0,-4,26475
1341233149,6469,78.0000000000000000,5.8438000679016110,35.0028991699218750,363.2233886718750000,626.2451782226562000,5.8191761970520020,31.9197196960449220,23,3,59,189,62,2147689174,2147723460,2148721947,2148568850,2126,0,-4,31188
1341233210,6468,74.5500030517578100,5.9120001792907715,35.0013999938964840,365.0122070312500000,624.2257080078125000,5.8842911720275880,31.8282108306884770,20,3,64,182,62,2147707089,2147798002,2148998888,2148629009,1680,0,-4,3856
1341233273,6468,71.1800003051757800,5.9468998908996580,34.9989013671875000,367.9096984863281000,622.9161987304688000,5.9264907836914060,31.7150096893310550,22,3,66,182,62,2147728132,2147886417,2149328685,2148700008,1492,0,-4,12808
1341233334,6467,68.0800018310546900,5.9839000701904300,34.9995002746582000,369.7304992675781000,621.7722778320312000,5.9633388519287110,31.6389102935791000,18,3,68,164,62,2147750166,2147959629,2149584159,2148762001,1188,0,-4,33920
1341233397,6469,64.9899978637695300,6.0146999359130860,35.0000000000000000,370.4150085449219000,620.8599853515625000,5.9927158355712890,31.6021595001220700,32,3,68,222,62,2147776150,2148027775,2149830961,2148825370,922,0,-4,28813
1341233458,6467,62.1300010681152340,6.0215001106262210,35.0009994506835940,370.7255859375000000,620.3474731445312000,6.0092158317565920,31.5838203430175780,20,3,72,170,62,2147809206,2148128104,2150159675,2148915085,587,0,-4,11454
1341233521,6468,59.0900001525878900,6.0647001266479490,35.0007019042968750,370.5531921386719000,619.3009033203125000,6.0429039001464840,31.5711994171142580,20,3,81,207,62,2147833211,2148158906,2150249238,2148953284,181,0,-4,63158
1341233582,6468,56.0699996948242200,6.0785999298095700,35.0009994506835940,369.9581909179687500,618.7683715820312000,6.0600399971008300,31.5803699493408200,24,3,85,182,62,2147864136,2148194230,2150237110,2148982509,3455,0,-4,13856
1341233645,6468,52.7999992370605500,6.0924000740051270,35.0009994506835940,369.2730102539062500,618.2869873046875000,6.0755290985107420,31.5933895111084000,41,3,90,186,62,2147934079,2148363912,2150770266,2149148013,3148,0,-4,59627
1341233706,6469,49.4500007629394500,6.2186999320983890,34.9975013732910160,368.2605895996094000,614.7854003906250000,6.1881198883056640,31.5648002624511720,69,3,120,226,64,2148085673,2148720854,2151813238,2149449787,2896,0,-4,56991
1341233769,6470,45.8400001525878900,6.2754998207092285,34.9986000061035160,368.0585021972656000,612.7138061523438000,6.2546749114990230,31.5359802246093750,28,3,132,212,64,2148260936,2149030732,2152527483,2149701266,2539,0,-4,417
1341233830,6469,42.1399993896484400,6.6563000679016110,34.9864006042480500,367.4767150878906000,602.5518798828125000,6.5805339813232420,31.3823890686035160,37,3,292,390,64,2148736136,2149939620,2154776475,2150397430,1956,0,-4,34805
1341233893,6471,38.3699989318847660,6.9147000312805180,34.9852981567382800,371.5079956054687500,593.7457885742188000,6.8621139526367190,31.1119194030761720,53,3,416,465,66,2149533320,2151275482,2157548178,2151278998,2360,0,-4,52437
1341233954,6471,34.7900009155273440,6.9801998138427730,34.9861984252929700,376.6117858886719000,590.5551147460938000,6.9639592170715330,30.9050807952880860,59,3,466,442,64,2151226934,2154021444,2163018765,2153047034,2155,0,-5,21751
1341234017,6471,30.9899997711181640,7.1613001823425290,34.9819984436035160,380.9379882812500000,585.4310913085938000,7.1273159980773930,30.6925392150878900,81,3,560,637,64,2154579611,2159196274,2172743167,2156223588,1663,0,-4,31721
1341234078,6472,27.2199993133544920,7.3551001548767090,34.9804000854492200,387.5810852050781000,578.7274780273438000,7.3406658172607420,30.3899497985839840,96,3,493,690,64,2160899560,2168028575,2187080360,2161288808,1540,1,-4,37926
1341234165,6469,22.6399993896484380,7.5862002372741700,34.9796981811523440,396.7633972167969000,571.8704223632812000,7.5584812164306640,30.0190391540527340,102,3,410,660,63,2172598528,2183703935,2210441554,2170086152,1897,0,-4,30652
1341234226,6471,21.0799999237060550,7.5973000526428220,34.9809989929199200,399.8398132324219000,571.2092285156250000,7.5794620513916020,29.9226703643798830,101,3,363,610,62,2175608936,2187162884,2214332872,2171821946,1879,0,-4,18751
1341234325,6470,18.8999996185302730,7.6788997650146480,34.9795989990234400,402.6387023925781000,568.3547973632812000,7.6699938774108890,29.8001308441162100,102,3,258,698,61,2189571281,2202971428,2232951171,2179704950,1503,0,-4,41926
1341234386,6470,17.0200004577636720,8.0692996978759770,34.9687995910644500,403.6870117187500000,557.3425903320312000,8.0186004638671880,29.5987300872802730,101,3,199,710,60,2207698207,2223587002,2257882660,2190169745,869,0,-4,9350
1341234465,6469,15.1199998855590820,8.6099004745483400,34.9678993225097660,408.4602966308594000,538.1049194335938000,8.6251525878906250,29.1737804412841800,109,3,154,819,64,2225430212,2241306609,2275721682,2198045206,1289,1,-5,12912
1341234537,6471,12.8999996185302730,9.8780002593994140,34.9592018127441400,403.4320983886719000,507.5057067871094000,9.5839319229125980,28.8518009185791000,108,3,108,714,56,2259919670,2278389833,2317151506,2217762504,3338,3,-4,28780
1341234617,6470,10.1400003433227540,10.8000001907348630,34.9879989624023440,378.9649963378906000,468.9136047363281000,10.7836599349975590,28.9732799530029300,87,3,94,590,58,2287961192,2307072383,2347099089,2235397672,3404,5,-2,8278
1341234689,6467,7.2899999618530270,10.9027996063232420,34.9887008666992200,371.3438110351562500,464.5253906250000000,10.9194698333740230,29.1320209503173830,85,3,85,637,56,2331598276,2351425334,2389226481,2266143898,2992,0,-3,45327
1341234759,6469,3.8099999427795410,11.2770996093750000,34.9802017211914060,365.6129150390625000,452.5736999511719000,11.2887601852417000,29.1313304901123050,82,3,75,598,61,2395822623,2420331235,2457915743,2332110929,3079,-7,2,34979
1341234818,6466,2.1300001144409180,0.0000000000000000,0.0000000000000000,363.9215087890625000,449.6973876953125000,11.3775100708007810,29.1410903930664060,280,3,68,583,59,2436399766,2452861778,2495023793,2376214147,3097,10,14,20033
1341234846,6469,0.7799999713897705,0.0000000000000000,0.0000000000000000,358.1011962890625000,428.8653869628906000,12.0189199447631840,29.0238399505615230,94,3,67,516,48,2464308333,2498636356,2548976497,2483959025,1744,-18,0,16160
